Location: Barnston
(51.8500°N, 0.4000°E)
Time: 12:11:29
(UTC+00:00)

YAOGAN 6 - Pass Details

Date: 26 September 2023
Orbit: 432 x 459 km, 97.1° (Epoch: 28 November)

Event Time Altitude Azimuth Distance (km) Brightness Sun altitude
Rises 03:31:43 0° 18° (NNE) 2,443 6.8 -21.4°
Reaches altitude 10° 03:33:48 10° 25° (NNE) 1,574 5.9 -21.2°
Maximum altitude 03:37:03 44° 99° (E) 628 3.4 -20.7°
Enters shadow 03:38:34 26° 157° (SSE) 923 3.9 -20.5°
